Fort Lewis, WA
on Friday, January 18, 2013

Friday
Previous Day Next Day
Daily Summary
 ActualAverage (KOLM)Record (KOLM)
Temperature
Mean Temperature °F 40°F  
Max Temperature 39°F 46°F 60°F (2005)
Min Temperature 23°F 34°F 13°F (1950)
Degree Days
Heating Degree Days 34 25  
Month to date heating degree days 460  
Since 1 July heating degree days 2730  
Cooling Degree Days 0 0  
Month to date cooling degree days 0  
Year to date cooling degree days 0  
Moisture
Dew Point 31°F   
Average Humidity 96    
Maximum Humidity 100    
Minimum Humidity 82    
Precipitation
Precipitation 0.00 in 0.27 in 3.23 in (1986)
Month to date precipitation 4.70  
Year to date precipitation 4.70  
Wind
Wind Speed 2 mph   
Max Wind Speed 6 mph   
Max Gust Speed mph   
Visibility 5 miles   
Events Fog   

Key: T is trace of precipitation, MM is missing value
Source: NWS Daily Summary
Time(PST)TemperatureDew PointHumidity Pressure Visibility Wind DirectionWind SpeedGust SpeedPrecipitationEvents Conditions
12:00 AM 28.4°F 28.4°F 100% 30.29 in 10.0 miles NNW 3.5 mph - N/A   Light Freezing Drizzle
12:27 AM 28.4°F 28.4°F 100% 30.29 in 10.0 miles NNW 2.3 mph - N/A   Overcast
12:58 AM 28.6°F 28.4°F 99% 30.31 in 0.2 miles NNW 3.5 mph - N/A Fog Light Freezing Fog
1:58 AM 28.0°F 27.9°F 99% 30.30 in 0.5 miles NNW 2.3 mph - N/A Fog Light Freezing Fog
2:58 AM 27.1°F 26.6°F 98% 30.30 in 0.2 miles NNW 2.3 mph - N/A Fog Light Freezing Fog
3:48 AM 26.6°F 26.6°F 100% 30.26 in 10.0 miles NNW 3.5 mph - N/A   Light Freezing Drizzle
3:58 AM 26.6°F 26.6°F 100% 30.28 in 0.2 miles NNW 2.3 mph - N/A Fog Light Freezing Fog
4:00 AM 26.6°F 26.6°F 100% 30.26 in 10.0 miles NNW 2.3 mph - N/A   Light Freezing Drizzle
4:58 AM 26.2°F 25.7°F 98% 30.28 in 0.2 miles Calm Calm - N/A Fog Light Freezing Fog
5:40 AM 26.6°F 24.8°F 93% 30.26 in 0.2 miles NNW 1.2 mph - N/A Fog Light Freezing Fog
6:06 AM 24.8°F 23.0°F 93% 30.26 in 10.0 miles NNW 1.2 mph - N/A   Mostly Cloudy
6:25 AM 24.8°F 23.0°F 93% 30.26 in 10.0 miles NNW 3.5 mph - N/A   Scattered Clouds
6:58 AM 23.5°F 22.8°F 97% 30.29 in 10.0 miles NNW 2.3 mph - N/A   Clear
7:58 AM 23.0°F 23.0°F 100% 30.30 in 10.0 miles NNW 3.5 mph - N/A   Mostly Cloudy
8:58 AM 26.8°F 26.2°F 98% 30.30 in 10.0 miles NNW 2.3 mph - N/A   Partly Cloudy
9:58 AM 28.4°F 28.4°F 100% 30.32 in 10.0 miles Calm Calm - N/A   Clear
10:58 AM 32.5°F 32.2°F 99% 30.32 in 10.0 miles Calm Calm - N/A   Clear
11:55 AM 35.4°F 32.5°F 89% 30.31 in 10.0 miles Calm Calm - N/A   Clear
12:55 PM 36.7°F 33.1°F 87% 30.29 in 10.0 miles Calm Calm - N/A   Partly Cloudy
2:55 PM 39.0°F 34.0°F 82% 30.30 in 10.0 miles NNW 4.6 mph - N/A   Scattered Clouds
3:55 PM 37.6°F 34.7°F 89% 30.31 in 10.0 miles NNW 5.8 mph - N/A   Overcast
4:12 PM 35.6°F 33.8°F 93% 30.31 in 10.0 miles NNW 5.8 mph - N/A   Overcast
4:45 PM 35.6°F 33.8°F 93% 30.30 in 3.0 miles Calm Calm - N/A   Overcast
4:55 PM 35.1°F 33.8°F 95% 30.31 in 3.0 miles Calm Calm - N/A   Overcast
5:44 PM 35.6°F 33.8°F 93% 30.31 in 2.0 miles Calm Calm - N/A   Overcast
5:55 PM 35.1°F 34.5°F 98% 30.31 in 2.0 miles NNW 3.5 mph - N/A   Overcast
6:55 PM 35.2°F 34.7°F 98% 30.32 in 2.0 miles Calm Calm - N/A   Overcast
7:10 PM 35.6°F 35.6°F 100% 30.32 in 2.0 miles Calm Calm - N/A   Overcast
7:55 PM 34.9°F 34.5°F 99% 30.32 in 2.5 miles Calm Calm - N/A   Overcast
8:05 PM 35.6°F 33.8°F 93% 30.32 in 3.0 miles Calm Calm - N/A   Overcast
8:26 PM 33.8°F 33.8°F 100% 30.31 in 2.5 miles NNW 2.3 mph - N/A   Overcast
8:43 PM 33.8°F 33.8°F 100% 30.31 in 3.0 miles NNW 1.2 mph - N/A   Overcast
8:55 PM 34.2°F 34.0°F 99% 30.33 in 2.0 miles Calm Calm - N/A   Overcast
8:58 PM 34.2°F 34.0°F 99% 30.33 in 2.0 miles North 1.2 mph - N/A   Overcast
9:48 PM 35.6°F 35.6°F 100% 30.32 in 1.0 miles North 1.2 mph - N/A   Overcast
9:58 PM 34.9°F 34.7°F 99% 30.34 in 1.0 miles North 2.3 mph - N/A   Overcast
10:17 PM 35.6°F 33.8°F 93% 30.32 in 0.5 miles NNW 2.3 mph - N/A Fog Fog
10:58 PM 34.3°F 34.2°F 99% 30.34 in 0.2 miles NNW 3.5 mph - N/A Fog Fog
11:59 PM - - N/A% - - Calm Calm - N/A   Unknown
Moon Phase
Jan. 18 Jan. 18 Jan. 26 Feb. 03 Feb. 10
Sunrise:07:49 AM (PST) Moon Rise:10:57 AM (PST)1/18
Sunset:04:52 PM (PST) Moon Set:12:19 AM (PST)1/18

Copyright © 2014 The Weather Underground, Inc.